TimeCDT,TemperatureF,Dew PointF,Humidity,Sea Level PressureIn,VisibilityMPH,Wind Direction,Wind SpeedMPH,Gust SpeedMPH,PrecipitationIn,Events,Conditions,WindDirDegrees,DateUTC
12:53 AM,64.0,61.0,90,30.02,9.0,Calm,Calm,-,N/A,,Clear,0,2013-07-04 05:53:00
1:53 AM,63.0,60.1,90,30.01,9.0,Calm,Calm,-,N/A,,Clear,0,2013-07-04 06:53:00
2:53 AM,62.1,59.0,90,30.01,9.0,Calm,Calm,-,N/A,,Clear,0,2013-07-04 07:53:00
3:53 AM,61.0,59.0,93,30.00,8.0,Calm,Calm,-,N/A,,Clear,0,2013-07-04 08:53:00
4:53 AM,61.0,59.0,93,30.01,8.0,Calm,Calm,-,N/A,,Clear,0,2013-07-04 09:53:00
5:53 AM,60.1,59.0,96,30.02,8.0,Calm,Calm,-,N/A,,Clear,0,2013-07-04 10:53:00
6:53 AM,62.1,60.1,93,30.02,7.0,Calm,Calm,-,N/A,,Clear,0,2013-07-04 11:53:00
7:53 AM,66.9,61.0,81,30.03,8.0,Calm,Calm,-,N/A,,Clear,0,2013-07-04 12:53:00
8:53 AM,73.0,59.0,61,30.04,10.0,ENE,5.8,-,N/A,,Clear,60,2013-07-04 13:53:00
9:53 AM,78.1,59.0,52,30.04,10.0,ENE,5.8,-,N/A,,Clear,70,2013-07-04 14:53:00
10:53 AM,82.9,55.9,39,30.05,10.0,NE,5.8,-,N/A,,Clear,50,2013-07-04 15:53:00
11:53 AM,84.9,59.0,41,30.04,10.0,NW,4.6,-,N/A,,Clear,320,2013-07-04 16:53:00
12:53 PM,86.0,57.9,38,30.03,10.0,NE,5.8,-,N/A,,Clear,40,2013-07-04 17:53:00
1:53 PM,88.0,57.0,35,30.01,10.0,ENE,10.4,-,N/A,,Partly Cloudy,60,2013-07-04 18:53:00
2:53 PM,89.1,57.0,34,29.99,10.0,NE,12.7,-,N/A,,Partly Cloudy,50,2013-07-04 19:53:00
3:53 PM,86.0,55.9,36,29.98,10.0,NE,4.6,-,N/A,,Mostly Cloudy,50,2013-07-04 20:53:00
4:53 PM,88.0,55.0,32,29.97,10.0,NNE,3.5,-,N/A,,Clear,20,2013-07-04 21:53:00
5:53 PM,87.1,55.9,35,29.95,10.0,East,6.9,-,N/A,,Clear,80,2013-07-04 22:53:00
6:53 PM,86.0,55.9,36,29.95,10.0,NNE,3.5,-,N/A,,Clear,30,2013-07-04 23:53:00
7:53 PM,78.1,63.0,60,29.96,10.0,Calm,Calm,-,N/A,,Clear,0,2013-07-05 00:53:00
8:53 PM,73.0,62.1,68,29.96,10.0,Calm,Calm,-,N/A,,Clear,0,2013-07-05 01:53:00
9:53 PM,70.0,61.0,73,29.98,10.0,Calm,Calm,-,N/A,,Clear,0,2013-07-05 02:53:00
10:53 PM,66.9,60.1,79,29.99,10.0,Calm,Calm,-,N/A,,Clear,0,2013-07-05 03:53:00
11:53 PM,64.9,61.0,87,29.99,10.0,Calm,Calm,-,N/A,,Clear,0,2013-07-05 04:53:00